KCVG Airport Diagram

We have created a template for each of the higher traffic airports in the vZID airspace. They include KCMH, KCRW, KCVG, KDAY, KIND, KLEX and KSDF. You wil find usefull information including the airport diagram, weather, and specific airport procedures.

KCVG Weather

[Source: ADDS]
METAR
KCVG 181752Z 07007KT 10SM FEW055 SCT250 29/16 A3011 RMK AO2 SLP183 T02940156 10294 20189 56004 =
KCVG 181739Z 1818/1924 07009KT P6SM FEW250 FM191300 13007KT P6SM SCT250 FM191500 16008KT P6SM SCT060
TAF
KCVG 181739Z 1818/1924 07009KT P6SM FEW250 FM191300 13007KT P6SM SCT250 FM191500 16008KT P6SM SCT060 =

KCVG Operations

Calm Wind Configuration is Landing runways 36C and 36R, departing runway 27.

You can expect  this configuration up to and including a 10 knot tailwind.

The Center runway is the old 18R/36L in the default scenery. Additionally, runway 9/27 was lengthened to 12,000 feet when the west runway (18R/36L) was added.

Where parallel taxiways exist, inner taxiway is used by inbound traffic and outer taxiway is used by outbound traffic.

FDX & UPS use the ramp area at Terminal 1.

New Scenery is available at FlightSim.com.

On initial contact, arriving aircraft should notify the the controller which scenery they have.

 

JSN Epic template designed by JoomlaShine.com